Location: Burgberg
(50.1428°N, 11.0671°E)
Time: 21:16:00
(UTC+00:00)

Cosmos 1821 Rocket - Pass Details

Date: 26 January 2020
Orbit: 944 x 1005 km, 82.9° (Epoch: 27 February)

Event Time Altitude Azimuth Distance (km) Brightness Sun altitude
Rises 05:06:38 0° 351° (N) 3,670 6.8 -17.7°
Reaches altitude 10° 05:09:11 10° 354° (N) 2,710 6.2 -17.3°
Maximum altitude 05:15:22 69° 78° (ENE) 1,020 4.3 -16.4°
Drops below altitude 10° 05:21:25 10° 162° (SSE) 2,663 6.7 -15.4°
Sets 05:23:55 0° 164° (SSE) 3,600 7.4 -15.0°
